Regional Weather Roundup
Issued by NWS

Home | Current Version | Previous Version | Graphics & Text | Print | Product List | Glossary On
Versions: 1 2 3 4 5 6 7 8 9 10 11 12 13 14 15 16 17 18 19 20 21 22 23 24 25 26 27 28 29 30 31 32 33 34 35 36 37 38 39 40 41 42 43 44 45 46 47 48 49 50
000
ASUS43 KBIS 291402
RWRND

NORTH DAKOTA REGIONAL WEATHER ROUNDUP
NATIONAL WEATHER SERVICE BISMARCK ND
900 AM CDT MON AUG 29 2016

NOTE: "FAIR" INDICATES FEW OR NO CLOUDS BELOW 12,000 FEET WITH NO
SIGNIFICANT WEATHER AND/OR OBSTRUCTIONS TO VISIBILITY.


NDZ001>003-009>011-017-291500-
NORTHWEST NORTH DAKOTA

CITY           SKY/WX    TMP DP  RH WIND       PRES   REMARKS
WILLISTON      SUNNY     55  44  66 N8        30.31R
MINOT          SUNNY     58  49  72 NW13      30.26R
MINOT AFB      SUNNY     56  48  73 NW12      30.26R HAZE
$$

NDZ018>021-031>035-040>046-291500-
SOUTHWEST NORTH DAKOTA

CITY           SKY/WX    TMP DP  RH WIND       PRES   REMARKS
BISMARCK       MOSUNNY   63  53  70 N14       30.22R
DICKINSON      SUNNY     60  46  59 NE17      30.26S
GARRISON         N/A     60  49  66 N8G16     30.25R
HETTINGER ARPT MOSUNNY   63  51  65 NE17      30.27R
$$

NDZ004>008-012>016-024-026-027-054-291500-
NORTHEAST NORTH DAKOTA

CITY           SKY/WX    TMP DP  RH WIND       PRES   REMARKS
GRAND FORKS    CLOUDY    70  64  81 N10       30.12R
GRND FRKS AFB  CLOUDY    67  62  83 N12       30.14R
DEVILS LAKE    SUNNY     61  53  75 N14       30.19S
$$

NDZ022-023-025-028>030-036>039-047>053-291500-
SOUTHEAST NORTH DAKOTA

CITY           SKY/WX    TMP DP  RH WIND       PRES   REMARKS
FARGO          SUNNY     74  67  78 S12G20    30.09R
JAMESTOWN      MOSUNNY   67  63  87 N8        30.17R
$$





USA.gov is the U.S. government's official web portal to all federal, state and local government web resources and services.